Simultaneous Nadir Overpasses (SNOs) Predictions

Prediction of SNOs between NPP and TERRA Satellite Orbit:

Table of predicted SNOs for the next 14.0 days since TLE Epoch: 12/14/2011
Index Date (NPP) Time (NPP) Lat,Lon (NPP) SZA (NPP ) Date (TERRA) Time (TERRA) Lat,Lon (TERRA) SZA (TERRA ) Distance(km) Time Diff (sec)
1 12/15/2011 10:39:32 68.45, 18.69 91.60 12/15/2011 10:40:06 68.48, 18.72 91.62 2.78 34
2 12/15/2011 11:30:13 -68.34,-173.84 88.52 12/15/2011 11:29:36 -68.36,-173.79 88.50 3.41 37
3 12/18/2011 02:05:51 -69.25, -33.90 87.49 12/18/2011 02:07:00 -69.13, -32.24 87.62 67.27 69
4 12/18/2011 02:56:22 68.41, 134.53 91.67 12/18/2011 02:56:38 68.41, 134.51 91.67 0.70 16
5 12/18/2011 03:47:03 -68.30, -58.01 88.45 12/18/2011 03:46:08 -68.30, -57.99 88.45 0.83 55
6 12/20/2011 18:22:29 -68.58, 82.79 88.11 12/20/2011 18:23:41 -68.53, 82.89 88.16 6.46 72
7 12/20/2011 19:13:12 68.38,-109.65 91.70 12/20/2011 19:13:09 68.37,-109.66 91.68 1.55 3
8 12/20/2011 20:03:52 -68.21, 57.88 88.48 12/20/2011 20:02:40 -68.21, 57.78 88.48 4.43 72
9 12/23/2011 10:39:17 -68.46,-161.27 88.23 12/23/2011 10:40:12 -68.47,-161.31 88.22 1.98 55
10 12/23/2011 11:30:02 68.37, 6.14 91.69 12/23/2011 11:29:39 68.35, 6.20 91.67 2.90 23
11 12/23/2011 12:20:30 -67.55, 174.48 89.14 12/23/2011 12:19:21 -67.58, 172.93 89.10 65.92 69
12 12/26/2011 02:56:05 -68.40, -45.42 88.33 12/26/2011 02:56:41 -68.42, -45.48 88.31 3.44 36
13 12/26/2011 03:46:50 68.32, 121.99
